Flag for U.S.A. Weather past 2 weeks in Tallahassee, Florida, U.S.A.

Now
71 °F

Passing clouds.


Feels Like: 68 °F
Forecast: 71 / 82 °F
Wind: 5 mph from Northeast

Location: Tallahassee Regional Airport

Current Time: May 27, 2015 at 7:03:54 AM

Latest Report: May 27, 2015 at 5:53 AM


Visibility: 10 mi

Pressure: 30.14 "Hg

Humidity: 90%

Dew point: 68 °F

Location of TallahasseeLocation

Historic Weather in Tallahassee — Graph

°F

Tallahassee temperature yesterday

Maximum temperature yesterday: 85 °F (at 3:53 PM)
Minimum temperature yesterday: 71 °F (at 11:53 PM)
Average temperature yesterday: 77 °F

Past Weeks' High & Low Weather Summary

 TemperatureHumidityPressure
High95 °F (May 20, 3:53 PM)97% (May 15, 8:53 PM)30.28 "Hg (May 15, 8:53 PM)
Low68 °F (May 23, 12:53 AM)31% (May 22, 4:53 PM)29.91 "Hg (May 20, 4:53 PM)
Average80 °F68%30.13 "Hg
* Reported May 12 5:02 AM — May 27 5:53 AM, Tallahassee, Weather by CustomWeather, © 2015

Note: Actual official high and low records may vary slightly from our data, if they occured in-between our weather recording intervals... More about our weather records

Advertising

Tallahassee weather history for previous 24 hours

 ConditionsComfort  
Time TempWeatherWind HumidityBarometerVisibility
5:53 AM
Wed, May 27
71 °FPassing clouds.5 mph90%30.14 "Hg10 mi
4:53 AM71 °FClear.No wind90%30.13 "Hg10 mi
3:53 AM71 °FClear.No wind90%30.13 "Hg10 mi
2:53 AM71 °FClear.No wind87%30.14 "Hg10 mi
1:53 AM72 °FClear.No wind87%30.17 "Hg10 mi
12:53 AM72 °FClear.7 mph87%30.19 "Hg10 mi
11:53 PM
Tue, May 26
71 °FClear.7 mph90%30.19 "Hg10 mi
10:53 PM72 °FPassing clouds.3 mph87%30.18 "Hg10 mi
9:53 PM73 °FPassing clouds.6 mph81%30.20 "Hg10 mi
8:53 PM73 °FMore clouds than sun.3 mph79%30.21 "Hg10 mi
7:53 PM74 °FThunderstorms. More clouds than sun.10 mph79%30.19 "Hg10 mi
6:53 PM80 °FThunderstorms. Broken clouds.18 mph76%30.19 "Hg10 mi
5:53 PM82 °FBroken clouds.12 mph74%30.15 "Hg10 mi
5:01 PM83 °FPartly sunny.7 mph79%30.15 "Hg10 mi
3:53 PM85 °FBroken clouds.5 mph70%30.15 "Hg10 mi
2:53 PM82 °FThunderstorms. Partly sunny.8 mph79%30.16 "Hg10 mi
2:01 PM79 °FPartly sunny.12 mph90%30.16 "Hg10 mi
12:53 PM79 °FThunderstorms. Broken clouds.8 mph88%30.16 "Hg10 mi
11:53 AM76 °FThunderstorms. Mostly cloudy.No wind91%30.19 "Hg10 mi
10:53 AM78 °FThunderstorms. Broken clouds.7 mph82%30.19 "Hg10 mi
9:53 AM82 °FThunderstorms. Broken clouds.10 mph74%30.19 "Hg10 mi
8:53 AM79 °FBroken clouds.9 mph82%30.19 "Hg10 mi
7:53 AM76 °FScattered clouds.10 mph88%30.17 "Hg10 mi
Weather by CustomWeather, © 2015

See weather overviewHow to use our weather pages